Location: Buch
(49.7331°N, 12.1098°E)
Time: 03:52:55
(UTC+00:00)

USA 307 - Pass Details

Date: 12 May 2021
Orbit: 566 x 577 km, 54.0° (Epoch: 10 May)

Event Time Altitude Azimuth Distance (km) Brightness Sun altitude
Rises 19:29:54 0° 294° (WNW) 2,775 8.3 -6.7°
Reaches altitude 10° 19:32:09 10° 296° (WNW) 1,878 7.1 -6.9°
Maximum altitude 19:36:25 76° 22° (NNE) 594 3.0 -7.5°
Drops below altitude 10° 19:40:42 10° 109° (ESE) 1,878 5.0 -8.0°
Enters shadow 19:40:59 - 109° (ESE) 1,988 5.1 -8.0°
